When you browse on this site, cookies collect data to enhance your experience and personalize the content and advertising you see.
Visit our Privacy Policy to learn more. By continuing to use the site, you agree to this use of cookies and data.
  • In Österreich
  • Länderverzeichnis
  • Für 7 Tage
  • Wassertemperatur
  • Satellitenkarten
  • Wetterkarte
  • News
  • Widgets
  • user-avatar
    Anmelden

    Stündliche Wetter Rohizna

    Heute, 21 Februar, Donnerstag

    Zeit Temperatur Niederschläge Wind Luftdruck Luftfeuchtigkeit
    00:00 +1°C° 0 mm 5 m/S 743 mmHg 80%
    01:00 +1°C° 0 mm 5 m/S 743 mmHg 79%
    02:00 +1°C° 0 mm 4 m/S 742 mmHg 82%
    03:00 +1°C° 0 mm 5 m/S 742 mmHg 81%
    04:00 +1°C° 0 mm 5 m/S 743 mmHg 80%
    05:00 +1°C° 0 mm 6 m/S 743 mmHg 79%
    06:00 -1°C° 0 mm 6 m/S 743 mmHg 79%
    07:00 -1°C° 0 mm 6 m/S 743 mmHg 79%
    08:00 -2°C° 0 mm 7 m/S 743 mmHg 79%
    09:00 -1°C° 0 mm 7 m/S 744 mmHg 72%
    10:00 0°C° 0 mm 8 m/S 744 mmHg 64%
    11:00 +1°C° 0 mm 8 m/S 744 mmHg 57%
    12:00 +1°C° 0 mm 8 m/S 744 mmHg 58%
    13:00 +2°C° 0 mm 8 m/S 744 mmHg 58%
    14:00 +2°C° 0 mm 8 m/S 744 mmHg 59%
    15:00 +3°C° 0 mm 7 m/S 744 mmHg 61%
    16:00 +2°C° 0 mm 7 m/S 744 mmHg 64%
    17:00 +2°C° 0 mm 6 m/S 744 mmHg 66%
    18:00 +2°C° 0 mm 5 m/S 744 mmHg 72%
    19:00 +1°C° 0 mm 4 m/S 744 mmHg 77%
    20:00 +2°C° 0 mm 3 m/S 744 mmHg 83%
    21:00 +3°C° 0.2 mm 2 m/S 744 mmHg 86%
    22:00 +3°C° 0.2 mm 2 m/S 744 mmHg 89%
    23:00 +4°C° 0.2 mm 1 m/S 744 mmHg 93%

    Morgen, 22 Februar, Freitag

    Zeit Temperatur Niederschläge Wind Luftdruck Luftfeuchtigkeit
    00:00 +2°C° 0.6 mm 2 m/S 743 mmHg 92%
    01:00 +1°C° 0.6 mm 2 m/S 743 mmHg 92%
    02:00 0°C° 0.6 mm 3 m/S 743 mmHg 91%
    03:00 -2°C° 0.7 mm 4 m/S 743 mmHg 92%
    04:00 -3°C° 0.7 mm 4 m/S 742 mmHg 92%
    05:00 -4°C° 0.7 mm 4 m/S 742 mmHg 93%
    06:00 -6°C° 0.5 mm 5 m/S 742 mmHg 92%
    07:00 -6°C° 0.5 mm 5 m/S 743 mmHg 91%
    08:00 -6°C° 0.5 mm 6 m/S 743 mmHg 89%
    09:00 -6°C° 0.4 mm 6 m/S 744 mmHg 87%
    10:00 -8°C° 0.4 mm 7 m/S 744 mmHg 84%
    11:00 -8°C° 0.4 mm 7 m/S 745 mmHg 81%
    12:00 -8°C° 0 mm 7 m/S 746 mmHg 75%
    13:00 -8°C° 0 mm 7 m/S 747 mmHg 69%
    14:00 -8°C° 0 mm 7 m/S 748 mmHg 63%
    15:00 -9°C° 0 mm 7 m/S 748 mmHg 64%
    16:00 -9°C° 0 mm 6 m/S 748 mmHg 65%
    17:00 -10°C° 0 mm 6 m/S 749 mmHg 66%
    18:00 -10°C° 0 mm 6 m/S 749 mmHg 68%
    19:00 -10°C° 0 mm 6 m/S 750 mmHg 70%
    20:00 -11°C° 0 mm 6 m/S 750 mmHg 72%
    21:00 -11°C° 0.1 mm 6 m/S 750 mmHg 72%
    22:00 -11°C° 0.1 mm 6 m/S 751 mmHg 71%
    23:00 -12°C° 0.1 mm 7 m/S 751 mmHg 71%

    übermorgen, 23 Februar, Samstag

    Zeit Temperatur Niederschläge Wind Luftdruck Luftfeuchtigkeit
    00:00 -11°C° 0 mm 6 m/S 751 mmHg 71%
    01:00 -11°C° 0 mm 6 m/S 751 mmHg 71%
    02:00 -11°C° 0 mm 6 m/S 752 mmHg 71%
    03:00 -11°C° 0 mm 6 m/S 752 mmHg 72%
    04:00 -12°C° 0 mm 6 m/S 752 mmHg 72%
    05:00 -12°C° 0 mm 6 m/S 752 mmHg 73%
    06:00 -12°C° 0 mm 6 m/S 753 mmHg 74%
    07:00 -12°C° 0 mm 6 m/S 753 mmHg 74%
    08:00 -12°C° 0 mm 6 m/S 754 mmHg 74%
    09:00 -13°C° 0 mm 7 m/S 754 mmHg 73%
    10:00 -12°C° 0 mm 7 m/S 754 mmHg 71%
    11:00 -12°C° 0 mm 7 m/S 755 mmHg 69%
    12:00 -11°C° 0 mm 7 m/S 755 mmHg 68%
    13:00 -11°C° 0 mm 7 m/S 755 mmHg 68%
    14:00 -10°C° 0 mm 6 m/S 755 mmHg 67%
    15:00 -10°C° 0 mm 6 m/S 755 mmHg 68%
    16:00 -10°C° 0 mm 6 m/S 755 mmHg 69%
    17:00 -10°C° 0 mm 6 m/S 755 mmHg 70%
    18:00 -10°C° 0 mm 5 m/S 755 mmHg 72%
    19:00 -11°C° 0 mm 5 m/S 755 mmHg 74%
    20:00 -10°C° 0 mm 4 m/S 755 mmHg 76%
    21:00 -10°C° 0 mm 4 m/S 755 mmHg 77%
    22:00 -10°C° 0 mm 3 m/S 755 mmHg 79%
    23:00 -10°C° 0 mm 3 m/S 755 mmHg 80%

    24 Februar, Sonntag

    Zeit Temperatur Niederschläge Wind Luftdruck Luftfeuchtigkeit
    00:00 -10°C° 0 mm 3 m/S 755 mmHg 81%
    01:00 -10°C° 0 mm 3 m/S 755 mmHg 82%
    02:00 -10°C° 0 mm 3 m/S 755 mmHg 83%
    03:00 -10°C° 0 mm 3 m/S 755 mmHg 83%
    04:00 -11°C° 0 mm 4 m/S 755 mmHg 83%
    05:00 -11°C° 0 mm 4 m/S 754 mmHg 84%
    06:00 -11°C° 0 mm 4 m/S 754 mmHg 83%
    07:00 -11°C° 0 mm 4 m/S 755 mmHg 83%
    08:00 -11°C° 0 mm 4 m/S 755 mmHg 83%
    09:00 -10°C° 0 mm 4 m/S 755 mmHg 79%
    10:00 -9°C° 0 mm 4 m/S 755 mmHg 75%
    11:00 -9°C° 0 mm 4 m/S 755 mmHg 71%
    12:00 -8°C° 0 mm 4 m/S 754 mmHg 67%
    13:00 -7°C° 0 mm 4 m/S 754 mmHg 63%
    14:00 -5°C° 0 mm 4 m/S 754 mmHg 60%
    15:00 -5°C° 0 mm 4 m/S 754 mmHg 62%
    16:00 -5°C° 0 mm 3 m/S 754 mmHg 64%
    17:00 -4°C° 0 mm 2 m/S 754 mmHg 66%
    18:00 -5°C° 0 mm 2 m/S 754 mmHg 69%
    19:00 -5°C° 0 mm 2 m/S 754 mmHg 71%
    20:00 -6°C° 0 mm 2 m/S 755 mmHg 73%
    21:00 -4°C° 0 mm 1 m/S 755 mmHg 74%
    22:00 -4°C° 0 mm 1 m/S 755 mmHg 75%
    23:00 -6°C° 0 mm 1 m/S 755 mmHg 76%

    25 Februar, Montag

    Zeit Temperatur Niederschläge Wind Luftdruck Luftfeuchtigkeit
    00:00 -6°C° 0 mm 1 m/S 755 mmHg 76%
    01:00 -6°C° 0 mm 0 m/S 755 mmHg 76%
    02:00 -7°C° 0 mm 0 m/S 755 mmHg 77%
    03:00 -7°C° 0 mm 0 m/S 755 mmHg 76%
    04:00 -7°C° 0 mm 1 m/S 755 mmHg 76%
    05:00 -7°C° 0 mm 1 m/S 755 mmHg 75%
    06:00 -6°C° 0 mm 1 m/S 755 mmHg 76%
    07:00 -6°C° 0 mm 1 m/S 755 mmHg 76%
    08:00 -7°C° 0 mm 2 m/S 755 mmHg 76%
    09:00 -5°C° 0 mm 2 m/S 755 mmHg 73%
    10:00 -4°C° 0 mm 2 m/S 755 mmHg 70%
    11:00 -4°C° 0 mm 3 m/S 755 mmHg 68%
    12:00 -2°C° 0 mm 3 m/S 755 mmHg 68%
    13:00 -2°C° 0 mm 4 m/S 754 mmHg 68%
    14:00 -1°C° 0 mm 4 m/S 754 mmHg 69%
    15:00 -1°C° 0 mm 4 m/S 753 mmHg 72%
    16:00 -2°C° 0 mm 4 m/S 753 mmHg 76%
    17:00 -2°C° 0 mm 4 m/S 752 mmHg 80%
    18:00 -2°C° 0 mm 4 m/S 752 mmHg 82%
    19:00 -3°C° 0 mm 4 m/S 752 mmHg 84%
    20:00 -3°C° 0 mm 4 m/S 752 mmHg 86%
    21:00 -3°C° 0 mm 4 m/S 752 mmHg 87%
    22:00 -3°C° 0 mm 4 m/S 751 mmHg 88%
    23:00 -2°C° 0 mm 4 m/S 751 mmHg 90%

    26 Februar, Dienstag

    Zeit Temperatur Niederschläge Wind Luftdruck Luftfeuchtigkeit
    00:00 -4°C° 0 mm 5 m/S 751 mmHg 91%
    01:00 -4°C° 0 mm 5 m/S 750 mmHg 92%
    02:00 -4°C° 0 mm 5 m/S 750 mmHg 93%
    03:00 -4°C° 0 mm 5 m/S 750 mmHg 92%
    04:00 -4°C° 0 mm 6 m/S 749 mmHg 92%
    05:00 -4°C° 0 mm 6 m/S 749 mmHg 91%
    06:00 -4°C° 0 mm 6 m/S 749 mmHg 90%
    07:00 -4°C° 0 mm 6 m/S 749 mmHg 89%
    08:00 -4°C° 0 mm 5 m/S 748 mmHg 89%
    09:00 -2°C° 0 mm 5 m/S 748 mmHg 87%
    10:00 -2°C° 0 mm 5 m/S 748 mmHg 85%
    11:00 -1°C° 0 mm 5 m/S 748 mmHg 84%
    12:00 0°C° 0 mm 5 m/S 747 mmHg 80%
    13:00 +1°C° 0 mm 6 m/S 746 mmHg 76%
    14:00 +2°C° 0 mm 6 m/S 745 mmHg 72%
    15:00 +1°C° 0 mm 5 m/S 744 mmHg 73%
    16:00 +1°C° 0 mm 5 m/S 743 mmHg 74%
    17:00 +1°C° 0 mm 5 m/S 742 mmHg 74%
    18:00 0°C° 0 mm 5 m/S 742 mmHg 76%
    19:00 0°C° 0 mm 5 m/S 741 mmHg 77%
    20:00 -2°C° 0 mm 6 m/S 740 mmHg 78%
    21:00 -1°C° 0 mm 6 m/S 740 mmHg 80%
    22:00 -1°C° 0 mm 7 m/S 739 mmHg 82%
    23:00 -1°C° 0 mm 8 m/S 739 mmHg 84%
    Mehr zeigen